Temperature
25 21 21 22 22 23 24 24 24 25 26 25 24 24 24 23 23 23 22 22 22 22 22 22 22 22 22 21 21 21 20 20 20 19 19 19 19 18 18 18 18 18 18 18
22 21 23 23 24 24 24 24 24 25 26 25 24 24 23 23 23 23 22 22 22 22 22 22 21 21 21 21 21 20 20 20 20 19 19 19 18 18 18 17 17 17 17 17
22 23 25 25 25 25 24 24 24 25 25 25 24 23 23 23 23 22 22 22 22 22 21 21 21 21 21 21 21 20 20 20 19 19 19 18 18 18 17 17 17 17 17 17
22 24 25 25 25 25 24 25 25 25 23 22 23 21 21 21 21 21 21 21 21 21 21 21 21 21 21 20 20 20 20 19 19 19 18 18 18 18 18 17 17 17 17 17
23 24 25 25 25 26 25 26 26 25 23 22 22 21 20 21 21 20 20 21 20 20 20 20 21 20 20 20 20 19 19 19 18 18 18 18 18 18 17 17 17 17 16 16
23 25 25 26 26 26 26 25 24 21 20 21 22 21 20 20 21 20 20 20 20 20 20 20 20 20 20 19 19 19 19 18 18 18 18 18 17 17 17 17 17 17 16 16
23 24 25 26 26 25 24 21 21 21 19 20 21 20 20 20 21 21 20 20 20 20 19 19 19 19 19 19 19 18 18 18 18 18 18 17 17 17 17 17 16 16 16 16
22 22 25 26 25 24 24 21 20 21 20 20 20 20 20 21 21 21 21 20 19 19 19 19 19 19 19 18 18 18 18 18 18 18 17 17 17 17 16 16 16 16 16 16
22 22 25 26 26 25 24 22 20 19 20 20 19 20 20 20 20 19 19 19 19 19 19 19 19 18 18 18 18 18 17 17 17 17 17 16 16 16 16 16 16 16 16 16
23 23 24 25 25 25 24 22 19 19 20 20 20 20 19 19 19 18 18 18 19 18 18 18 18 18 18 18 17 17 17 17 17 16 16 16 16 16 15 15 15 15 15 15
22 21 22 23 24 24 24 23 19 17 18 19 19 19 20 19 18 18 17 18 18 18 18 18 18 17 17 17 17 17 16 16 16 16 16 16 15 15 15 15 15 15 15 15
21 19 20 22 23 24 23 22 19 19 19 18 18 18 19 18 18 18 18 17 18 18 18 18 17 17 17 17 16 16 16 16 16 16 15 15 15 15 15 15 14 14 14 14
21 18 19 20 21 22 23 22 20 18 17 17 17 18 18 18 18 18 18 17 17 17 17 17 17 16 16 16 16 16 16 16 15 15 15 15 15 14 14 14 14 14 14 14
20 17 18 19 19 20 22 22 21 19 17 18 18 18 17 17 17 17 17 17 17 17 17 16 16 16 16 16 16 15 15 15 15 15 15 15 14 14 14 14 14 14 14 14
19 19 20 20 21 22 22 22 22 20 19 18 18 17 17 16 16 16 16 16 16 16 16 16 16 16 15 15 15 15 15 15 14 14 14 14 14 14 14 14 13 13 13 13
17 19 20 20 21 21 21 21 21 21 20 19 18 17 17 17 17 16 16 16 16 16 16 16 15 15 15 15 15 15 15 14 14 14 14 14 14 13 13 13 13 13 13 13
16 18 18 18 20 20 19 19 20 20 19 19 17 16 16 15 15 16 16 16 16 16 15 15 15 15 15 15 15 14 14 14 14 14 13 13 13 13 13 13 13 13 12 12
16 16 15 16 18 18 18 19 20 19 18 18 17 16 16 15 16 16 16 16 16 15 15 15 15 15 14 14 14 14 14 14 13 13 13 13 13 13 13 12 12 12 12 12
16 16 15 15 16 17 18 19 19 18 17 17 16 16 15 16 15 15 16 16 16 15 15 15 14 14 14 14 14 14 13 13 13 13 13 13 12 12 12 12 12 12 12 12
16 15 15 15 16 16 17 19 19 18 15 16 16 15 15 15 13 13 15 16 15 15 15 14 14 14 14 14 13 13 13 13 13 12 12 12 12 12 12 12 12 11 11 11
16 16 15 15 15 16 17 19 19 17 15 16 16 16 16 15 14 15 15 15 15 15 14 14 14 14 13 13 13 13 12 12 12 12 12 12 12 12 11 11 11 11 11 11
15 15 14 14 14 15 17 17 16 15 17 17 17 17 16 16 16 15 15 15 14 14 14 14 14 13 13 13 12 12 12 12 12 12 11 11 11 11 11 11 11 11 11 11
15 14 14 14 14 15 17 17 17 17 17 17 17 17 16 16 15 15 15 14 14 14 14 13 13 13 13 12 12 12 12 11 11 11 11 11 11 11 11 11 11 11 11 10
15 15 13 13 14 15 17 17 17 17 17 17 17 16 16 15 15 15 14 14 14 14 13 13 13 13 12 12 12 12 11 11 11 11 11 11 11 11 11 10 10 10 10 10
15 14 13 14 14 15 16 17 17 17 17 16 16 16 16 15 15 14 14 14 14 13 13 13 13 12 12 12 11 11 11 11 11 11 11 10 10 10 10 10 10 10 10 10
14 14 13 13 14 14 15 16 16 16 16 16 16 15 15 15 15 14 14 14 13 13 13 12 12 12 12 12 11 11 11 11 10 10 10 10 10 10 10 10 10 10 10 10
Wind_Speed
2 2 5 9 9 8 5 5 7 8 4 2 5 5 7 11 11 10 9 9 9 9 8 9 9 9 8 7 7 7 6 5 5 4 4 3 2 1 2 2 4 5 4 4
3 6 12 9 7 5 5 6 8 7 3 3 5 3 4 9 11 12 12 10 10 8 6 8 8 7 7 8 8 7 7 6 5 4 3 3 3 2 2 2 2 4 4 4
8 9 7 6 7 6 7 6 6 5 3 3 4 2 0 3 5 7 8 10 11 12 11 10 9 7 7 6 7 7 6 6 5 5 3 3 3 2 2 1 1 1 3 3
7 9 7 5 7 6 6 7 5 3 2 2 3 2 3 2 4 5 7 8 9 9 10 10 9 7 6 6 6 6 6 5 5 5 5 5 4 3 3 2 2 1 2 2
7 5 5 6 9 6 8 6 3 2 3 0 2 4 4 0 4 6 7 9 10 10 10 9 8 8 6 6 6 5 5 4 3 4 5 5 3 3 2 2 2 2 1 1
8 6 5 7 7 5 4 2 4 5 4 1 4 5 4 4 6 7 7 8 8 9 9 8 6 6 5 5 5 5 6 4 4 4 4 4 4 3 3 2 2 2 1 1
7 8 5 3 2 4 3 5 4 4 4 4 3 4 5 5 6 9 11 9 8 9 8 7 6 6 6 6 6 5 6 4 3 4 3 3 4 4 4 3 2 2 2 2
3 7 6 3 5 4 3 9 7 5 5 4 2 2 3 2 5 8 10 10 9 8 7 7 7 6 6 6 6 5 4 3 3 3 2 2 3 3 2 3 2 2 2 3
4 6 5 3 3 6 3 3 8 7 2 1 1 0 2 3 7 9 9 9 8 8 7 7 6 6 6 6 5 5 4 3 3 3 2 2 2 2 2 2 2 1 1 2
5 3 6 4 3 2 6 6 6 5 3 1 0 1 3 4 6 7 7 8 7 7 6 6 6 6 6 5 4 3 3 3 2 2 2 2 2 2 2 2 2 2 2 1
4 2 5 5 1 2 3 3 5 4 5 6 2 3 3 7 8 8 7 7 8 7 7 6 5 5 5 4 4 3 3 2 1 2 2 2 2 2 2 2 2 2 2 2
2 4 1 5 5 3 5 4 6 5 2 4 5 3 2 6 7 8 8 7 7 7 6 6 5 5 5 4 3 3 3 2 2 2 1 1 1 1 1 1 2 2 2 2
4 5 2 7 8 6 3 2 4 6 5 4 4 3 2 6 7 7 8 8 7 7 7 6 5 5 4 4 3 2 2 2 1 2 2 1 1 1 1 2 2 1 2 2
5 5 5 5 5 3 3 2 2 5 4 4 5 6 2 5 7 7 7 8 7 7 6 5 4 4 3 3 2 2 1 1 2 3 2 2 1 2 1 1 1 1 1 1
5 4 2 2 2 1 2 4 1 3 6 7 6 7 6 6 8 8 8 8 7 7 6 5 4 3 3 2 1 1 1 1 2 2 2 1 2 1 1 0 1 1 1 2
4 4 2 1 1 2 4 5 1 2 4 8 9 3 3 5 7 7 8 8 7 6 5 4 4 4 3 2 2 1 1 1 2 2 1 1 1 0 1 1 1 1 1 1
2 4 3 2 3 3 4 4 1 3 3 7 5 4 5 8 8 7 7 7 7 6 5 5 3 3 2 2 2 2 2 1 2 1 1 1 1 1 1 1 1 1 2 2
4 4 4 1 3 1 5 2 4 7 5 4 6 7 8 9 7 5 5 7 6 6 5 3 2 2 1 1 1 1 1 2 1 1 0 1 1 1 2 1 2 2 2 2
5 6 4 3 2 2 3 2 1 5 3 2 8 8 8 8 6 4 2 5 6 5 4 3 2 2 2 1 1 2 2 1 1 1 1 1 1 2 2 3 3 3 3 3
4 5 5 4 3 3 5 5 1 8 2 1 7 8 7 6 4 2 2 4 5 5 4 3 2 2 2 1 2 3 2 1 1 2 2 2 2 2 3 3 4 3 3 3
3 3 3 3 3 4 5 5 2 3 6 4 6 8 7 4 5 5 4 3 4 4 4 3 3 3 1 1 3 2 0 1 3 2 2 2 2 3 3 3 3 3 3 2
3 2 2 3 2 5 5 1 3 5 4 5 5 6 5 5 5 6 5 5 4 3 3 3 3 2 1 1 2 1 2 3 2 2 2 3 3 3 2 2 3 2 2 2
2 5 5 5 5 5 1 4 5 7 7 4 5 6 8 7 6 6 5 5 4 4 3 2 3 2 0 0 2 1 3 3 2 2 3 3 3 3 2 2 3 2 1 2
2 2 3 2 1 1 2 4 4 5 6 6 7 7 8 7 6 5 4 4 3 3 3 2 2 2 1 2 1 2 2 2 1 2 3 3 3 3 3 2 2 2 2 3
2 2 2 1 1 2 2 2 3 5 6 6 5 6 7 7 6 5 4 3 3 3 3 3 3 3 3 3 2 2 2 1 2 3 3 3 3 3 3 2 2 3 3 4
2 3 4 4 4 4 4 2 4 5 5 6 6 4 4 5 5 5 4 3 3 3 2 2 2 2 3 3 3 3 2 1 1 3 4 3 3 3 3 3 4 4 4 6
Wind_Direction
263 96 233 233 217 213 230 254 264 264 263 137 157 162 159 156 152 154 159 160 157 156 159 148 146 145 138 139 139 146 144 146 139 133 140 140 151 141 119 120 129 127 122 123
356 256 239 237 244 238 242 260 272 286 275 146 156 165 163 160 167 169 163 159 155 143 134 139 137 137 144 146 149 150 154 155 153 154 158 158 149 144 143 136 129 132 121 122
213 245 248 238 248 242 251 230 239 246 331 44 111 34 154 180 137 145 151 156 156 153 151 150 148 149 149 152 156 157 157 154 152 144 129 113 90 78 89 115 157 141 129 125
240 252 257 254 247 219 255 244 213 196 117 268 131 166 279 184 126 135 151 159 157 148 144 146 146 146 157 170 154 142 142 145 148 141 140 144 155 169 188 183 171 155 135 131
247 241 231 242 244 217 227 237 213 183 162 273 10 128 268 227 168 181 170 161 153 148 143 139 144 153 158 153 139 136 125 121 125 137 148 148 156 179 177 150 148 160 176 152
250 255 222 228 244 229 224 11 22 49 78 266 242 151 242 225 198 186 172 156 152 141 135 131 133 133 123 118 116 119 113 106 107 110 115 136 148 155 136 138 157 176 201 217
296 292 268 230 295 319 85 86 27 356 8 250 231 134 223 225 188 164 156 152 147 133 129 125 120 119 123 123 123 120 124 119 118 124 134 150 156 151 150 159 172 180 198 223
240 286 271 226 191 202 179 138 158 197 222 267 350 164 239 201 132 125 130 136 133 129 133 136 138 137 136 136 131 128 130 132 138 144 152 149 143 148 162 169 169 185 205 221
196 260 283 257 200 153 144 160 169 148 171 117 306 84 5 72 97 107 118 128 136 140 140 138 136 137 135 136 137 144 149 152 162 163 155 148 142 139 150 154 159 188 217 218
176 256 300 305 48 40 149 143 86 104 148 199 309 207 208 179 145 131 133 136 148 146 136 134 132 131 132 139 137 135 140 151 159 160 171 174 177 161 164 156 173 198 220 221
139 156 315 3 85 190 63 80 106 120 148 152 186 262 222 180 163 151 145 142 137 133 140 143 136 130 128 125 128 130 133 127 138 168 181 174 179 175 169 183 198 201 210 207
124 124 270 281 277 194 137 157 143 147 203 148 153 245 318 156 147 140 136 127 120 119 122 123 117 113 114 116 124 137 151 154 178 174 153 163 170 166 172 214 222 204 204 212
110 102 45 342 347 6 51 73 133 135 125 135 148 223 40 118 121 125 126 122 114 111 113 110 113 116 118 119 122 129 150 170 170 130 118 113 122 181 217 242 245 221 203 217
116 105 151 191 231 274 312 333 93 118 136 167 179 170 168 138 139 130 124 124 121 109 116 125 120 114 111 109 108 109 134 145 126 115 118 141 184 192 206 227 246 240 214 210
96 120 159 198 237 307 317 311 268 148 169 166 178 167 189 180 156 143 138 132 120 115 113 114 115 114 116 113 105 117 135 135 126 111 118 185 203 192 163 158 246 266 260 249
67 126 97 1 309 25 2 347 354 124 126 134 130 154 194 144 124 121 130 127 123 123 123 123 122 119 138 157 150 153 145 149 127 126 185 243 242 239 241 223 218 275 279 281
75 120 109 261 304 27 346 327 46 87 100 138 156 186 148 123 125 136 136 134 137 136 130 129 134 143 150 175 160 154 156 142 119 141 250 261 227 236 257 266 269 265 265 270
138 116 129 138 37 228 248 288 102 93 65 98 125 139 139 136 134 127 131 137 138 134 128 124 120 108 121 119 110 154 120 97 92 86 297 276 265 262 261 269 258 259 258 260
141 133 120 119 146 257 286 312 167 125 52 72 126 128 121 119 90 53 80 131 140 140 138 138 137 134 124 117 97 81 61 56 49 349 293 265 239 269 279 276 268 256 253 258
79 100 116 125 146 217 254 292 145 102 67 325 131 135 136 113 115 221 202 126 123 125 126 121 108 86 97 112 89 82 54 22 333 295 279 275 263 252 261 266 264 262 248 242
49 56 110 140 175 253 269 289 78 135 205 195 145 141 137 145 177 182 154 130 127 130 127 118 106 99 128 139 112 109 74 283 276 294 301 297 284 267 264 267 273 273 258 258
160 139 154 136 165 246 290 44 139 189 169 144 137 139 133 135 132 133 133 133 132 126 125 121 114 103 83 108 119 143 257 264 280 306 312 306 297 286 286 272 276 273 256 255
152 177 173 175 202 230 221 140 159 143 134 141 136 134 129 129 136 138 137 139 145 146 152 150 141 135 129 123 142 198 268 278 293 317 306 299 294 291 292 275 272 281 277 258
331 72 102 93 237 177 114 116 125 135 142 148 143 139 134 139 147 143 146 149 153 163 173 166 147 153 227 258 232 227 259 279 304 300 295 291 291 292 295 284 264 256 261 259
271 58 82 122 224 64 44 102 130 131 128 126 128 134 140 140 148 157 163 175 183 191 192 176 176 192 223 247 265 272 269 276 300 293 284 283 277 271 270 273 263 253 247 236
250 168 167 211 209 172 213 198 125 123 128 133 134 130 133 142 159 164 172 185 185 192 196 185 189 206 233 246 262 273 270 250 280 290 283 275 275 273 269 273 294 286 270 274
Height
1493 1500 1506 1501 1499 1500 1501 1504 1505 1497 1487 1493 1498 1500 1500 1500 1502 1504 1506 1508 1511 1513 1515 1517 1518 1520 1521 1523 1524 1525 1526 1527 1528 1529 1530 1530 1531 1532 1532 1533 1533 1534 1534 1534
1499 1502 1493 1491 1492 1495 1499 1504 1503 1495 1488 1492 1499 1501 1498 1499 1500 1501 1503 1506 1510 1513 1515 1516 1517 1519 1521 1521 1523 1524 1525 1526 1527 1528 1528 1529 1530 1531 1531 1532 1532 1532 1533 1532
1501 1493 1486 1489 1492 1496 1497 1501 1500 1498 1491 1491 1499 1509 1505 1501 1501 1502 1504 1505 1506 1508 1511 1513 1515 1517 1519 1520 1521 1522 1523 1525 1525 1526 1527 1528 1529 1529 1530 1530 1531 1531 1531 1531
1493 1486 1485 1488 1490 1491 1499 1487 1489 1491 1502 1510 1505 1527 1514 1506 1504 1504 1505 1506 1505 1507 1509 1510 1512 1515 1517 1519 1520 1521 1521 1523 1524 1525 1526 1526 1527 1527 1528 1529 1529 1529 1530 1530
1490 1483 1484 1487 1484 1483 1487 1480 1484 1488 1499 1510 1509 1523 1521 1508 1509 1507 1504 1505 1505 1506 1508 1510 1512 1514 1516 1517 1519 1520 1521 1523 1524 1525 1524 1525 1526 1526 1527 1527 1527 1528 1528 1528
1483 1477 1478 1478 1475 1476 1477 1482 1487 1497 1509 1523 1513 1520 1523 1512 1506 1504 1503 1504 1505 1507 1508 1510 1512 1514 1516 1517 1518 1520 1521 1521 1522 1523 1523 1523 1525 1525 1525 1526 1526 1526 1527 1527
1487 1479 1473 1472 1477 1476 1480 1500 1519 1522 1531 1528 1510 1516 1518 1503 1498 1498 1500 1502 1505 1507 1509 1511 1512 1513 1514 1516 1517 1518 1519 1520 1520 1521 1521 1522 1523 1523 1523 1524 1524 1525 1525 1525
1498 1496 1476 1471 1475 1481 1483 1496 1521 1531 1533 1527 1513 1517 1510 1498 1496 1497 1499 1502 1504 1507 1509 1510 1512 1513 1514 1516 1516 1518 1518 1519 1519 1520 1520 1521 1522 1522 1522 1523 1523 1523 1523 1523
1495 1493 1471 1467 1467 1472 1483 1491 1494 1513 1517 1526 1523 1514 1506 1500 1500 1500 1502 1504 1505 1507 1508 1510 1511 1512 1514 1515 1516 1517 1517 1518 1518 1518 1519 1519 1520 1521 1521 1521 1522 1521 1521 1521
1481 1489 1476 1468 1467 1469 1474 1482 1499 1512 1525 1531 1524 1520 1518 1508 1505 1503 1504 1504 1506 1507 1508 1511 1511 1512 1513 1514 1515 1516 1517 1517 1517 1517 1517 1518 1519 1519 1519 1519 1519 1519 1519 1519
1477 1489 1485 1477 1478 1480 1479 1485 1496 1510 1515 1528 1534 1527 1503 1503 1502 1503 1504 1504 1505 1507 1509 1510 1511 1512 1513 1514 1514 1515 1515 1515 1516 1516 1516 1517 1517 1517 1517 1517 1517 1517 1517 1517
1477 1489 1495 1485 1474 1469 1474 1482 1493 1509 1513 1518 1526 1524 1499 1499 1500 1501 1503 1505 1506 1507 1509 1511 1512 1512 1513 1513 1514 1514 1514 1514 1514 1515 1515 1515 1515 1515 1515 1515 1515 1515 1515 1514
1476 1491 1504 1499 1491 1480 1479 1479 1485 1496 1508 1517 1525 1520 1501 1500 1502 1503 1504 1505 1506 1507 1509 1510 1511 1512 1512 1512 1513 1513 1513 1513 1513 1514 1514 1514 1513 1513 1512 1512 1513 1513 1512 1512
1472 1489 1501 1507 1502 1490 1486 1482 1482 1493 1510 1513 1511 1510 1506 1503 1502 1503 1504 1506 1507 1508 1509 1510 1510 1511 1511 1512 1512 1512 1512 1512 1512 1512 1512 1512 1512 1511 1511 1510 1510 1510 1510 1510
1473 1488 1487 1487 1484 1483 1484 1483 1481 1487 1494 1502 1503 1504 1504 1502 1501 1502 1504 1506 1507 1508 1509 1510 1510 1511 1511 1512 1512 1512 1512 1512 1512 1511 1511 1511 1511 1510 1509 1508 1508 1508 1507 1507
1477 1485 1486 1488 1483 1483 1486 1483 1481 1484 1487 1493 1498 1503 1498 1499 1500 1502 1504 1505 1507 1508 1509 1510 1510 1511 1512 1512 1511 1511 1511 1511 1510 1510 1510 1510 1509 1508 1507 1506 1506 1506 1505 1504
1482 1486 1494 1498 1487 1487 1497 1489 1485 1486 1486 1490 1498 1500 1497 1500 1501 1502 1504 1505 1507 1508 1509 1509 1510 1510 1511 1511 1511 1510 1510 1510 1509 1509 1508 1508 1507 1507 1506 1505 1504 1503 1503 1502
1482 1488 1497 1499 1497 1508 1500 1484 1483 1486 1489 1488 1490 1494 1496 1498 1500 1502 1504 1505 1506 1507 1508 1509 1509 1510 1510 1510 1510 1510 1509 1508 1508 1507 1507 1506 1505 1505 1504 1503 1501 1501 1500 1499
1474 1484 1496 1504 1507 1504 1493 1485 1484 1489 1496 1492 1492 1495 1497 1499 1501 1504 1505 1505 1506 1507 1508 1508 1509 1510 1509 1509 1509 1508 1508 1507 1506 1505 1505 1504 1503 1502 1501 1500 1499 1498 1497 1497
1475 1480 1493 1501 1506 1510 1498 1485 1482 1487 1500 1494 1493 1495 1497 1498 1505 1506 1505 1505 1505 1507 1507 1508 1509 1509 1508 1508 1508 1507 1506 1506 1505 1504 1503 1502 1501 1499 1498 1497 1496 1495 1495 1494
1486 1489 1495 1500 1506 1501 1489 1483 1482 1498 1501 1494 1492 1493 1495 1497 1500 1502 1503 1504 1505 1506 1507 1507 1507 1507 1507 1507 1506 1505 1505 1504 1503 1502 1501 1500 1498 1497 1495 1494 1493 1492 1492 1491
1490 1495 1498 1501 1507 1504 1485 1483 1488 1491 1489 1491 1492 1493 1495 1496 1499 1500 1502 1503 1504 1505 1506 1506 1506 1505 1505 1505 1505 1504 1503 1503 1502 1500 1499 1498 1496 1495 1494 1492 1491 1490 1489 1488
1486 1487 1490 1493 1496 1487 1483 1484 1485 1485 1488 1490 1492 1494 1495 1496 1498 1500 1501 1502 1503 1504 1504 1504 1504 1504 1504 1504 1503 1502 1501 1501 1499 1498 1496 1495 1494 1493 1491 1490 1489 1487 1486 1485
1483 1481 1486 1489 1488 1485 1484 1484 1485 1486 1488 1490 1491 1493 1494 1496 1498 1499 1500 1501 1502 1502 1502 1502 1502 1502 1501 1501 1501 1500 1499 1498 1497 1495 1494 1492 1491 1490 1488 1487 1486 1484 1483 1482
1483 1483 1486 1488 1486 1485 1485 1486 1486 1487 1489 1490 1491 1492 1493 1495 1496 1498 1498 1499 1500 1500 1500 1500 1500 1499 1499 1498 1498 1497 1496 1495 1493 1492 1490 1489 1488 1486 1485 1484 1483 1481 1480 1480
1481 1483 1486 1487 1484 1485 1486 1486 1486 1487 1488 1489 1490 1491 1493 1493 1494 1496 1496 1497 1498 1498 1498 1497 1497 1496 1496 1495 1494 1494 1493 1491 1490 1488 1487 1486 1485 1484 1483 1481 1480 1479 1478 1477